Opa Locka, FL

9:58 AM EST on January 21, 2018 (GMT -0500)
Opa Locka

Weather History for KOPF - July, 2013

Change the Weather History Date:

Wednesday, July 10, 2013

  Actual Average Record
Temperature  
Mean Temperature 81 °F -  
Max Temperature 87 °F 90 °F 95 °F (2010)
Min Temperature 75 °F 75 °F 66 °F (1950)
Cooling Degree Days 16    
Growing Degree Days 31 (Base 50)    
Moisture  
Dew Point 73 °F    
Average Humidity 78    
Maximum Humidity 91    
Minimum Humidity 59    
Precipitation  
Precipitation 0.00 in - - ()
Sea Level Pressure  
Sea Level Pressure 30.06 in    
Wind  
Wind Speed 3 mph (East)    
Max Wind Speed 15 mph    
Max Gust Speed 22 mph    
Visibility 10 miles    
Events      
Averages and records for this station are not official NWS values.
T = Trace of Precipitation, MM = Missing Value Source: NWS Daily Summary

Daily Weather History Graph

Daily Weather History Graph

Search for Another Location

Airport or City:

Trip Planner

Search our weather history database for the weather conditions in past years. The results will help you decide how hot, cold, wet, or windy it might be!

Date:

Astronomy

Jul. 10, 2013 Rise Set
Actual Time 6:36 AM EDT 8:16 PM EDT
Civil Twilight 6:10 AM EDT 8:41 PM EDT
Nautical Twilight 5:40 AM EDT 9:12 PM EDT
Astronomical Twilight 5:07 AM EDT 9:45 PM EDT
Moon 8:38 AM EDT (7/10) 9:45 PM EDT (7/10)
Length of Visible Light 14h 30m
Length of Day
13h 39m
Waxing Crescent, 5% of the Moon is Illuminated
Jul 10
Waxing Crescent
Jul 15
First Quarter
Jul 22
Full
Jul 29
Last Quarter
Aug 6
New

Hourly Weather History & Observations

Time (EDT) Temp. Heat Index Dew Point Humidity Pressure Visibility Wind Dir Wind Speed Gust Speed Precip Events Conditions
12:53 AM 77.0 °F - 72.0 °F 84% 30.10 in 10.0 mi Calm Calm - N/A   Clear
1:53 AM 78.1 °F - 72.0 °F 81% 30.07 in 10.0 mi Calm Calm - N/A   Clear
2:53 AM 77.0 °F - 72.0 °F 84% 30.06 in 10.0 mi Calm Calm - N/A   Scattered Clouds
3:53 AM 77.0 °F - 73.0 °F 88% 30.06 in 10.0 mi Calm Calm - N/A   Scattered Clouds
4:53 AM 77.0 °F - 73.0 °F 88% 30.06 in 10.0 mi Calm Calm - N/A   Overcast
5:53 AM 75.9 °F - 73.0 °F 91% 30.06 in 10.0 mi Calm Calm - N/A   Scattered Clouds
6:53 AM 75.9 °F - 73.0 °F 91% 30.06 in 10.0 mi Calm Calm - N/A   Clear
7:53 AM 78.1 °F - 73.9 °F 87% 30.07 in 10.0 mi NW 3.5 mph - N/A   Scattered Clouds
8:53 AM 80.1 °F 84.2 °F 73.0 °F 79% 30.09 in 10.0 mi North 3.5 mph - N/A   Clear
9:53 AM 78.1 °F - 70.0 °F 76% 30.10 in 10.0 mi SSW 5.8 mph - N/A   Mostly Cloudy
10:11 AM 80.6 °F 83.9 °F 69.8 °F 70% 30.09 in 10.0 mi South 3.5 mph - N/A   Scattered Clouds
10:53 AM 82.0 °F 86.3 °F 71.1 °F 69% 30.09 in 10.0 mi Calm Calm - N/A   Clear
11:53 AM 84.0 °F 89.0 °F 71.1 °F 65% 30.09 in 10.0 mi ENE 3.5 mph - N/A   Clear
12:53 PM 84.0 °F 89.6 °F 72.0 °F 67% 30.07 in 10.0 mi East 6.9 mph - N/A   Mostly Cloudy
1:53 PM 80.1 °F 85.1 °F 75.0 °F 85% 30.08 in 10.0 mi ENE 3.5 mph - 0.00 in   Mostly Cloudy
2:00 PM 80.6 °F 86.2 °F 75.2 °F 84% 30.07 in 10.0 mi NNE 5.8 mph - N/A   Mostly Cloudy
2:09 PM 84.2 °F 92.3 °F 75.2 °F 74% 30.06 in 10.0 mi ENE 6.9 mph - N/A   Scattered Clouds
2:53 PM 87.1 °F 92.8 °F 71.1 °F 59% 30.05 in 10.0 mi SE 8.1 mph - N/A   Clear
3:53 PM 84.0 °F 90.2 °F 73.0 °F 69% 30.04 in 10.0 mi ESE 12.7 mph - N/A   Scattered Clouds
4:53 PM 84.0 °F 90.2 °F 73.0 °F 69% 30.02 in 10.0 mi ESE 15.0 mph 21.9 mph N/A   Scattered Clouds
5:39 PM 80.6 °F 84.6 °F 71.6 °F 74% 30.03 in 10.0 mi NNE 10.4 mph 16.1 mph N/A   Overcast
5:53 PM 78.1 °F - 71.1 °F 79% 30.03 in 10.0 mi NNW 9.2 mph - N/A   Overcast
6:21 PM 80.6 °F 84.6 °F 71.6 °F 74% 30.01 in 10.0 mi NW 3.5 mph - N/A   Overcast
6:31 PM 80.6 °F 84.6 °F 71.6 °F 74% 30.01 in 10.0 mi Calm Calm - N/A   Overcast
6:53 PM 81.0 °F 85.8 °F 73.0 °F 77% 30.02 in 10.0 mi Calm Calm - N/A   Overcast
7:12 PM 80.6 °F 86.2 °F 75.2 °F 84% 30.02 in 10.0 mi ESE 5.8 mph - N/A   Mostly Cloudy
7:53 PM 80.1 °F 84.5 °F 73.9 °F 81% 30.03 in 10.0 mi ESE 8.1 mph - N/A   Clear
8:53 PM 80.1 °F 84.2 °F 73.0 °F 79% 30.03 in 10.0 mi SE 8.1 mph - N/A   Clear
9:53 PM 80.1 °F 84.2 °F 73.0 °F 79% 30.04 in 10.0 mi SE 5.8 mph - N/A   Clear
10:53 PM 79.0 °F - 73.0 °F 82% 30.05 in 10.0 mi SE 5.8 mph - N/A   Clear
11:53 PM 78.1 °F - 73.9 °F 87% 30.06 in 10.0 mi East 3.5 mph - N/A   Clear